Location: Waco, TX
(31.5480°N, 97.1670°W)
Time: 05:35:51
(UTC-05:00)

ISS - Pass Details

Date: 21 June 2018
Orbit: 402 x 406 km, 51.6° (Epoch: 19 June)

Event Time Altitude Azimuth Distance (km) Brightness Sun altitude
Rises 10:26:10 0° 266° (W) 2,317 -0.4 48.6°
Reaches altitude 10° 10:29:03 10° 294° (WNW) 1,460 -1.3 49.2°
Maximum altitude 10:30:48 14° 327° (NNW) 1,260 -1.4 49.6°
Drops below altitude 10° 10:32:34 10° 359° (N) 1,463 -0.9 50.0°
Sets 10:35:27 0° 27° (NNE) 2,325 0.3 50.6°
